KC8RFE-2 Weather Reports


time (UTC)temp
C
wind
direction
speed
KPH
gust
KPH
rain 1hr
cm
rain 24hr
cm
rain mn
cm
humidity
%
barometer
mb
20260906113702 19 94 1.6 3.2 0.00 0.00 0.00 9 991.4
20260906113135 19 88 1.6 3.2 0.00 0.00 0.00 9 991.4
20260906112702 19 86 0.0 3.2 0.00 0.00 0.00 9 991.4
20260906112133 19 95 1.6 4.8 0.00 0.00 0.00 9 991.2
20260906111702 19 100 1.6 3.2 0.00 0.00 0.00 9 991.2
20260906111202 19 102 1.6 3.2 0.00 0.00 0.00 9 991.2
20260906110702 19 86 1.6 4.8 0.00 0.00 0.00 9 991.2
20260906110134 19 95 1.6 3.2 0.00 0.00 0.00 9 991.1
20260906105702 20 102 1.6 3.2 0.00 0.00 0.00 9 990.9
20260906105135 20 79 1.6 3.2 0.00 0.00 0.00 9 990.9
20260906104702 20 80 1.6 4.8 0.00 0.00 0.00 9 990.7
20260906104134 20 76 1.6 3.2 0.00 0.00 0.00 9 990.7
20260906103702 20 92 1.6 3.2 0.00 0.00 0.00 9 990.7
20260906103134 20 90 1.6 3.2 0.00 0.00 0.00 9 990.7
20260906102702 20 80 1.6 3.2 0.00 0.00 0.00 9 990.7
20260906102202 20 90 1.6 1.6 0.00 0.00 0.00 9 990.6
20260906101702 20 85 1.6 3.2 0.00 0.00 0.00 9 990.6
20260906101202 20 98 1.6 3.2 0.00 0.00 0.00 9 990.6
20260906100702 20 86 3.2 6.4 0.00 0.00 0.00 9 990.6
20260906100134 20 93 1.6 3.2 0.00 0.00 0.00 9 990.6
20260906095702 20 95 3.2 6.4 0.00 0.00 0.00 9 990.6
20260906095202 20 95 1.6 4.8 0.00 0.00 0.00 9 990.6
20260906094702 20 95 3.2 4.8 0.00 0.00 0.00 9 990.7
20260906094136 20 100 1.6 3.2 0.00 0.00 0.00 9 990.7
20260906093702 20 66 3.2 6.4 0.00 0.00 0.00 9 990.6
20260906093202 20 86 3.2 6.4 0.00 0.00 0.00 9 990.6
20260906092702 20 65 1.6 4.8 0.00 0.00 0.00 9 990.6
20260906092134 21 81 1.6 3.2 0.00 0.00 0.00 9 990.7
20260906091703 21 88 1.6 3.2 0.00 0.00 0.00 9 990.7
20260906091203 21 82 1.6 4.8 0.00 0.00 0.00 9 990.7
20260906090703 21 103 1.6 4.8 0.00 0.00 0.00 9 990.7
20260906090136 21 92 1.6 4.8 0.00 0.00 0.00 9 990.7
20260906085703 21 89 3.2 6.4 0.00 0.00 0.00 9 990.7
20260906085135 21 95 1.6 3.2 0.00 0.00 0.00 9 990.7
20260906084703 21 82 3.2 4.8 0.00 0.00 0.00 9 990.6
20260906084136 21 97 1.6 4.8 0.00 0.00 0.00 9 990.6
20260906083703 21 53 1.6 4.8 0.00 0.00 0.00 9 990.6
20260906083136 21 87 1.6 4.8 0.00 0.00 0.00 9 990.6
20260906082703 21 65 1.6 4.8 0.00 0.00 0.00 9 990.6
20260906082203 21 76 1.6 3.2 0.00 0.00 0.00 9 990.4
20260906081703 21 79 1.6 4.8 0.00 0.00 0.00 9 990.4
20260906081202 21 114 1.6 3.2 0.00 0.00 0.00 9 990.2
20260906080702 21 106 1.6 3.2 0.00 0.00 0.00 9 990.2
20260906080136 21 86 0.0 3.2 0.00 0.00 0.00 9 990.2
20260906075702 21 77 1.6 3.2 0.00 0.00 0.00 9 990.2
20260906075202 21 95 1.6 4.8 0.00 0.00 0.00 9 990.2
20260906074702 21 75 1.6 3.2 0.00 0.00 0.00 9 990.4
20260906074136 21 84 0.0 3.2 0.00 0.00 0.00 9 990.4
20260906073702 21 71 1.6 3.2 0.00 0.00 0.00 9 990.4
20260906073202 21 108 0.0 1.6 0.00 0.00 0.00 9 990.4
20260906072702 21 103 0.0 1.6 0.00 0.00 0.00 9 990.4
20260906072137 21 90 0.0 1.6 0.00 0.00 0.00 9 990.4
20260906071702 21 52 0.0 1.6 0.00 0.00 0.00 9 990.4
20260906071136 21 66 0.0 1.6 0.00 0.00 0.00 9 990.5
20260906070702 21 45 0.0 1.6 0.00 0.00 0.00 9 990.6
20260906070202 22 26 0.0 1.6 0.00 0.00 0.00 9 990.6
20260906065702 22 30 0.0 1.6 0.00 0.00 0.00 9 990.7
20260906065202 22 37 1.6 4.8 0.00 0.00 0.00 9 990.7
20260906064702 21 19 0.0 1.6 0.00 0.00 0.00 9 990.9
20260906064136 21 78 0.0 3.2 0.00 0.00 0.00 9 990.9
20260906063702 21 67 0.0 1.6 0.00 0.00 0.00 9 990.8
20260906063202 21 26 0.0 1.6 0.00 0.00 0.00 9 990.7
20260906062702 21 61 1.6 4.8 0.00 0.00 0.00 9 990.7
20260906062202 21 42 3.2 4.8 0.00 0.00 0.00 9 990.7
20260906061702 21 22 1.6 4.8 0.00 0.00 0.00 9 990.7
20260906061202 21 42 1.6 3.2 0.00 0.00 0.00 9 990.6
20260906060702 22 41 1.6 3.2 0.00 0.00 0.00 9 990.6
20260906060202 22 67 0.0 3.2 0.00 0.00 0.00 9 990.6
20260906055702 22 93 1.6 4.8 0.00 0.00 0.00 9 990.4
20260906055202 22 86 1.6 3.2 0.00 0.00 0.00 9 990.4
20260906054702 21 87 1.6 3.2 0.00 0.00 0.00 9 990.4
20260906054136 21 84 1.6 3.2 0.00 0.00 0.00 9 990.4
20260906053703 21 85 0.0 4.8 0.00 0.00 0.00 9 990.3
20260906053135 21 91 1.6 4.8 0.00 0.00 0.00 9 990.2
20260906052703 21 96 1.6 3.2 0.00 0.00 0.00 9 990.2
20260906052135 21 100 0.0 3.2 0.00 0.00 0.00 9 990.2
20260906051703 21 83 1.6 1.6 0.00 0.00 0.00 9 990.2
20260906051203 21 97 1.6 1.6 0.00 0.00 0.00 9 990.2
20260906050703 21 106 1.6 4.8 0.00 0.00 0.00 9 990.2
20260906050203 21 78 1.6 4.8 0.00 0.00 0.00 9 990.2
20260905142819 24 0 0.0 0.0 0.00 0.00 0.00 9 987.9
20260905141050 24 0 0.0 0.0 0.00 0.00 0.00 9 987.9
20260905140946 24 0 0.0 0.0 0.00 0.00 0.00 9 987.9
20260905135739 24 0 0.0 0.0 0.00 0.00 0.00 9 987.9
20260905135243 24 0 0.0 0.0 0.00 0.00 0.00 9 987.9
20260905134949 24 0 0.0 0.0 0.00 0.00 0.00 9 987.9
20260905134427 24 0 0.0 0.0 0.00 0.00 0.00 9 987.9
20260905133942 24 0 0.0 0.0 0.00 0.00 0.00 9 987.9
20260905133215 24 0 0.0 0.0 0.00 0.00 0.00 9 987.9
20260905133017 24 0 0.0 0.0 0.00 0.00 0.00 9 987.9
20260905132210 24 0 0.0 0.0 0.00 0.00 0.00 9 987.9
20260905131725 24 0 0.0 0.0 0.00 0.00 0.00 9 987.9
20260905131213 24 0 0.0 0.0 0.00 0.00 0.00 9 987.9
20260905130723 24 0 0.0 0.0 0.00 0.00 0.00 9 987.9
20260905130421 24 0 0.0 0.0 0.00 0.00 0.00 9 987.9
20260905125619 24 0 0.0 0.0 0.00 0.00 0.00 9 987.9
20260905125152 24 0 0.0 0.0 0.00 0.00 0.00 9 987.9
20260905124654 24 0 0.0 0.0 0.00 0.00 0.00 9 987.9
20260905124151 24 0 0.0 0.0 0.00 0.00 0.00 9 987.9
20260905123711 24 0 0.0 0.0 0.00 0.00 0.00 9 987.9
20260905123247 24 0 0.0 0.0 0.00 0.00 0.00 9 987.9
20260905122919 24 0 0.0 0.0 0.00 0.00 0.00 9 987.9
20260905122834 24 0 0.0 0.0 0.00 0.00 0.00 9 987.9
20260905122750 24 0 0.0 0.0 0.00 0.00 0.00 9 987.9
20260905122704 24 0 0.0 0.0 0.00 0.00 0.00 9 987.9
20260905122617 24 0 0.0 0.0 0.00 0.00 0.00 9 987.9
20260905122153 24 0 0.0 0.0 0.00 0.00 0.00 9 987.9
20260905122103 24 0 0.0 0.0 0.00 0.00 0.00 9 987.9
20260905121614 24 0 0.0 0.0 0.00 0.00 0.00 9 987.9
20260905121540 24 0 0.0 0.0 0.00 0.00 0.00 9 987.9
20260905121458 24 0 0.0 0.0 0.00 0.00 0.00 9 987.9
20260905120757 24 0 0.0 0.0 0.00 0.00 0.00 9 987.9